"Pseudo-MPEC" for ZTF06zF

Created 2019 Sep 12 7:07:25 UT using Find_Orb

Click here for an explanation of pseudo-MPECs

 
 Astrometry: 
     ZTF06zF  C2019 08 11_fP_T94rNvGMGV1R=uGLmI,M%)ld7n##yb2lQ*@M+HNbYZY/'_V*F51
     ZTF06zF  C2019 08 11EsXJJh:?kqr.)d9h_@s-H5@)HO0b,;-YM2[wTOpFGh.*-GLlgFS5F51
     ZTF06zF  C2019 08 115sr^#)cx-B%?#t-MtTo(8)eHJe!9O28Ro8oG7LsnNG!UAUK#HM`gF51
     ZTF06zF  C2019 09 07.39449000 10 43.92 +17 31 01.4    ~9ALb 20.03rUNEOCPI41
     ZTF06zF  C2019 09 07.44310000 10 37.31 +17 32 16.9    ~9ALb 20.68gUNEOCPI41
     ZTF06zF  C2019 09 09.39524000 06 16.63 +18 22 14.4    ~9ALb 20.01rUNEOCPI41
     ZTF06zF  C2019 09 09.42309000 06 12.68 +18 22 56.5    ~9ALb 20.74gUNEOCPI41
     ZTF06zF  C2019 09 10.41934000 03 55.02 +18 47 55.1    ~9ALb 20.01rUNEOCPI41
     ZTF06zF  C2019 09 10.43162000 03 53.23 +18 48 13.2    ~9ALb 19.89rUNEOCPI41
     ZTF06zF  C2019 09 10.47376000 03 47.17 +18 49 15.7    ~9ALb 20.87gUNEOCPI41
     ZTF06zF  C2019 09 10.47466000 03 47.01 +18 49 16.8    ~9ALb 20.81gUNEOCPI41
     ZTF06zF KC2019 09 10P0R+J,Z\Ef+7[R7L$1A,XBbTRg1:rgD(sP,%dB$+Mf%-9]rZj+V,K63
     ZTF06zF KC2019 09 10_.spbghOAstrometryfKHW(Z,eMHR-VEj(Y435tLDGC,5e6!68qHK63
     ZTF06zF KC2019 09 10@QHM=OOI6_H'h'o!pDNnkKUZjk5[]`)$8++redacted;/ZZ2q@ZRK63
     ZTF06zF KC2019 09 11.a!c1Ekk[K-;Bc!KAm0LD-4o'H!ic#RuD!m:\s!bhC%iHG]XM9#4L01
     ZTF06zF pC2019 09 11NL;PN*:Q75-56UOL(+hpNG_QnvcB6@VmLnAV.rGCY\34f9q[2y)LL01
     ZTF06zF KC2019 09 11PwH:s^Z*MVqnfY@4#TJjh6*_-eK-nw7FQs^f#;m3fE6hjlG3)QrjL01
     ZTF06zF KC2019 09 11pwQ?ui?ut83:pN.)nJclick]::%p+r=UHjy?gQ8tWknIYcsaq#VuL01
     ZTF06zF KC2019 09 11:J5t@tF8l!`\TY$+qtY(fN,E7%,b\]wfLKaGqy9r_P?T2jNEMns3L01
     ZTF06zF KC2019 09 12md8Op=]jQDkHC^t\4UBfK2M?_:g$here,A*[7atF87`;u4xd5S,!H21
     ZTF06zF KC2019 09 12S1gZ+Mtr+'95Pk$K7pC(forW9XE7BZD(6R:WfE*;=5BV%8,J1b3/H21
     ZTF06zF KC2019 09 12jDHi_D$]'n5AKfVq]E9m$+SOHek5N53v856Zexplanationr=Nb^H21

Station data:
(F51) Pan-STARRS 1, Haleakala  (N20.707235 W156.255910)  US/Hawaii.
   Observers N. Primak, A. Schultz, S. Watters, J. Thiel, T. Goggia. Measurer
   PS1 Science Consortium. 1.8-m Ritchey-Chrétien + CCD.
(H21) Astronomical Research Observatory, Westfield  (N39.483057 W87.968270)
   US/Illinois. 0.76-m f/3.0 astrograph + CCD.
(I41) Palomar Mountain--ZTF  (N33.357340 W116.859780)  US/California. 1.2-m
   f/2.44 Oschin Schmidt + CCD.
(K63) G. Pascoli Observatory, Castelvecchio Pascoli  (N44.082410 E10.462000)
   Italy.
(L01) Višnjan Observatory, Tičan  (N45.290900 E13.749300)  Croatia.
   Observers K. Korlević, E. Pettarin. Measurer E. Pettarin. 1.0-m f/2.9
   reflector + CCD.

Orbital elements:  ZTF06zF
   Perihelion 2020 Jan 5.423289 +/- 0.253 TT = 10:09:32 (JD 2458853.923289)
Epoch 2019 Sep 12.0 TT = JDT 2458738.5   Earth MOID: 0.6025   Ma: 0.0241
M 305.40984675 +/- 0.13             (J2000 ecliptic)          AutoNEOCP
n   0.47295614 +/- 0.00014          Peri.   74.15017 +/- 0.13
a   1.63150648 +/- 0.000321         Node   341.44314 +/- 0.0041
e   0.0371274 +/- 8.99e-5           Incl.   25.93455 +/- 0.008
P   2.08/761.16d           H 19.3   G  0.15   U  6.8  
q 1.57093285 +/- 0.000217    Q 1.69208010 +/- 0.000456
From 22 observations 2019 Aug. 11-Sept. 12; mean residual 0".40
Residuals in arcseconds: 
190811 F51  .00   .08-    190910 I41  .50-  .08+    190911 L01  .58+  .17+    
190811 F51  .09-  .11+    190910 I41  .42-  .27+    190911 L01  .49+  .27-    
190811 F51  .09+  .04-    190910 I41  .86-  .04+    190911 L01  .26+  .56-    
190907 I41  .29+  .13+    190910 K63  .61+  1.1-    190912 H21  .02+  .97+    
190907 I41  .21-  .38+    190910 K63  .17+  .72-    190912 H21  .50-  .81+    
190909 I41  .05-  .00     190910 K63  .05+  .16-    190912 H21  .16-  .20-    
190909 I41  .15-  .08+    190911 L01  .50+  .17-    
190910 I41  .25-  .19+    190911 L01  .01-  .04+    

Ephemerides (geocentric):
Date (UTC) HH   RA              Dec         delta   r     elong  mag " sig PA
---- -- -- --  -------------   -----------  ------ ------ -----  --- ---- ---
2019 09 12 07  23 59 29.285   +19 33 50.24  .63060 1.5978 154.1 20.1 .171  47
2019 09 12 08  23 59 23.262   +19 34 50.45  .63052 1.5978 154.1 20.1 .175  47
2019 09 12 09  23 59 17.234   +19 35 50.60  .63044 1.5978 154.2 20.1 .180  47
2019 09 12 10  23 59 11.203   +19 36 50.71  .63036 1.5978 154.2 20.1 .184  47
2019 09 12 11  23 59 05.167   +19 37 50.78  .63029 1.5978 154.2 20.1 .189  47
2019 09 12 12  23 58 59.127   +19 38 50.79  .63021 1.5977 154.2 20.1 .193  47
2019 09 12 13  23 58 53.083   +19 39 50.76  .63013 1.5977 154.3 20.1 .198  47
2019 09 12 14  23 58 47.034   +19 40 50.68  .63006 1.5977 154.3 20.1 .202  47
2019 09 12 15  23 58 40.982   +19 41 50.55  .62998 1.5977 154.3 20.1 .207  47
2019 09 12 16  23 58 34.925   +19 42 50.38  .62991 1.5977 154.3 20.1 .212  47
2019 09 12 17  23 58 28.865   +19 43 50.15  .62983 1.5977 154.3 20.1 .216  47
2019 09 12 18  23 58 22.800   +19 44 49.88  .62976 1.5976 154.4 20.1 .221  47
2019 09 12 19  23 58 16.731   +19 45 49.56  .62968 1.5976 154.4 20.1 .225  47
2019 09 12 20  23 58 10.658   +19 46 49.19  .62961 1.5976 154.4 20.1 .230  47
2019 09 12 21  23 58 04.581   +19 47 48.78  .62954 1.5976 154.4 20.1 .235  46
2019 09 12 22  23 57 58.500   +19 48 48.31  .62947 1.5976 154.5 20.1 .239  46
2019 09 12 23  23 57 52.415   +19 49 47.80  .62939 1.5975 154.5 20.1 .244  46
2019 09 13 00  23 57 46.325   +19 50 47.23  .62932 1.5975 154.5 20.1 .248  46
2019 09 13 01  23 57 40.232   +19 51 46.62  .62925 1.5975 154.5 20.1 .253  46
2019 09 13 02  23 57 34.135   +19 52 45.96  .62918 1.5975 154.5 20.1 .258  46
2019 09 13 03  23 57 28.034   +19 53 45.25  .62911 1.5975 154.6 20.1 .262  46
2019 09 13 04  23 57 21.929   +19 54 44.49  .62904 1.5975 154.6 20.1 .267  46
2019 09 13 05  23 57 15.820   +19 55 43.68  .62897 1.5974 154.6 20.1 .272  46
2019 09 13 06  23 57 09.707   +19 56 42.82  .62890 1.5974 154.6 20.1 .276  46
2019 09 13 07  23 57 03.590   +19 57 41.91  .62883 1.5974 154.6 20.1 .281  46
2019 09 13 08  23 56 57.470   +19 58 40.95  .62876 1.5974 154.7 20.1 .286  46
2019 09 13 09  23 56 51.345   +19 59 39.94  .62870 1.5974 154.7 20.1 .291  46
2019 09 13 10  23 56 45.217   +20 00 38.88  .62863 1.5974 154.7 20.1 .295  46
2019 09 13 11  23 56 39.084   +20 01 37.77  .62856 1.5973 154.7 20.1 .300  46
2019 09 13 12  23 56 32.948   +20 02 36.61  .62850 1.5973 154.7 20.1 .305  46
2019 09 13 13  23 56 26.808   +20 03 35.39  .62843 1.5973 154.8 20.1 .310  46
2019 09 13 14  23 56 20.664   +20 04 34.13  .62836 1.5973 154.8 20.1 .314  46
2019 09 13 15  23 56 14.517   +20 05 32.82  .62830 1.5973 154.8 20.1 .319  45
2019 09 13 16  23 56 08.365   +20 06 31.45  .62823 1.5972 154.8 20.1 .324  45
2019 09 13 17  23 56 02.210   +20 07 30.04  .62817 1.5972 154.8 20.1 .329  45
2019 09 13 18  23 55 56.052   +20 08 28.57  .62811 1.5972 154.9 20.1 .333  45
2019 09 13 19  23 55 49.889   +20 09 27.05  .62804 1.5972 154.9 20.1 .338  45
2019 09 13 20  23 55 43.723   +20 10 25.48  .62798 1.5972 154.9 20.1 .343  45
2019 09 13 21  23 55 37.553   +20 11 23.86  .62792 1.5972 154.9 20.1 .348  45
2019 09 13 22  23 55 31.379   +20 12 22.19  .62785 1.5971 154.9 20.1 .353  45
2019 09 13 23  23 55 25.202   +20 13 20.46  .62779 1.5971 154.9 20.1 .358  45
2019 09 14 00  23 55 19.021   +20 14 18.68  .62773 1.5971 155.0 20.1 .362  45
2019 09 14 01  23 55 12.836   +20 15 16.85  .62767 1.5971 155.0 20.1 .367  45
2019 09 14 02  23 55 06.648   +20 16 14.97  .62761 1.5971 155.0 20.1 .372  45
2019 09 14 03  23 55 00.456   +20 17 13.04  .62755 1.5971 155.0 20.1 .377  45
2019 09 14 04  23 54 54.261   +20 18 11.05  .62749 1.5970 155.0 20.1 .382  45
2019 09 14 05  23 54 48.062   +20 19 09.01  .62743 1.5970 155.1 20.1 .387  45
2019 09 14 06  23 54 41.859   +20 20 06.92  .62737 1.5970 155.1 20.1 .392  45